This is the latest recevied weather packets stored in our database for station/object KA1BMF-13. If no packets are shown the sender has not sent any weather packets the latest 10 day(s).
| Time | Temp. | Humidity | Pressure | Rain* | Wind** | Luminosity | Snow |
|---|---|---|---|---|---|---|---|
| 1788048319 | 18.33° C | 75% | 1021.5 hPa | 0 mm | - | 0 W/m² | - |
| 1788047720 | 18.33° C | 73% | 1021.4 hPa | 0 mm | - | 0 W/m² | - |
| 1788047117 | 18.33° C | 74% | 1021.4 hPa | 0 mm | - | 0 W/m² | - |
| 1788046517 | 18.33° C | 73% | 1021.2 hPa | 0 mm | - | 2 W/m² | - |
| 1788045917 | 18.89° C | 74% | 1021.2 hPa | 0 mm | - | 5 W/m² | - |
| 1788045318 | 19.44° C | 75% | 1021.3 hPa | 0 mm | - | 10 W/m² | - |
| 1788044718 | 19.44° C | 73% | 1021.3 hPa | 0 mm | - | 15 W/m² | - |
| 1788044118 | 20° C | 72% | 1021.1 hPa | 0 mm | - | 18 W/m² | - |
| 1788043518 | 20° C | 71% | 1021.1 hPa | 0 mm | - | 22 W/m² | - |
| 1788042918 | 20.56° C | 69% | 1021 hPa | 0 mm | - | 24 W/m² | - |
| 1788042319 | 21.11° C | 68% | 1020.9 hPa | 0 mm | - | 26 W/m² | - |
| 1788041716 | 21.11° C | 66% | 1020.9 hPa | 0 mm | - | 28 W/m² | - |
| 1788041119 | 21.11° C | 65% | 1020.8 hPa | 0 mm | - | 30 W/m² | - |
| 1788040519 | 21.67° C | 63% | 1020.9 hPa | 0 mm | - | 32 W/m² | - |
| 1788039920 | 21.67° C | 63% | 1021 hPa | 0 mm | - | 33 W/m² | - |
| 1788039319 | 22.22° C | 59% | 1021.2 hPa | 0 mm | - | 35 W/m² | - |
| 1788038717 | 22.78° C | 56% | 1021.3 hPa | 0 mm | - | 37 W/m² | - |
| 1788038117 | 22.78° C | 57% | 1021.5 hPa | 0 mm | - | 37 W/m² | - |
| 1788037520 | 23.33° C | 50% | 1021.5 hPa | 0 mm | - | 39 W/m² | - |
| 1788036920 | 23.33° C | 51% | 1021.5 hPa | 0 mm | - | 41 W/m² | - |
| 1788036317 | 23.33° C | 57% | 1021.6 hPa | 0 mm | - | 43 W/m² | - |
| 1788035717 | 23.89° C | 55% | 1021.6 hPa | 0 mm | - | 45 W/m² | - |
| 1788035117 | 23.89° C | 51% | 1021.6 hPa | 0 mm | - | 47 W/m² | - |
| 1788034518 | 24.44° C | 50% | 1021.6 hPa | 0 mm | - | 454 W/m² | - |
| 1788033918 | 24.44° C | 52% | 1021.5 hPa | 0 mm | - | 525 W/m² | - |
* Rain latest hour (hover to see other rain measurements)
** Current wind speed in m/s (hover to see current wind gust speed)